GW0168 Weather Reports


time (UTC)temp
C
wind
direction
speed
KPH
gust
KPH
rain 1hr
cm
rain 24hr
cm
rain mn
cm
humidity
%
barometer
mb
20260507050029 5 0 0.0 3.2 0.00 0.00 0.00 87 1005.5
20260507044530 5 0 0.0 4.8 0.00 0.00 0.00 87 1005.6
20260507043035 5 327 0.0 3.2 0.00 0.00 0.00 88 1005.8
20260507041528 5 0 0.0 3.2 0.00 0.00 0.00 88 1005.9
20260507040028 4 0 0.0 4.8 0.00 0.00 0.00 89 1006.0
20260507034527 4 0 0.0 1.6 0.00 0.00 0.00 88 1006.1
20260507033028 4 0 0.0 4.8 0.00 0.00 0.00 88 1006.2
20260507031527 4 0 0.0 3.2 0.00 0.00 0.00 88 1006.4
20260507030031 4 0 0.0 3.2 0.00 0.00 0.00 89 1006.5
20260507024527 4 0 0.0 3.2 0.00 0.00 0.00 89 1006.6
20260507023029 3 0 0.0 3.2 0.00 0.00 0.00 89 1006.8
20260507021526 3 0 0.0 1.6 0.00 0.00 0.00 88 1006.8
20260507020025 4 0 0.0 1.6 0.00 0.00 0.00 87 1006.8
20260507014529 3 0 0.0 3.2 0.00 0.00 0.00 87 1006.9
20260507013035 4 0 0.0 3.2 0.00 0.00 0.00 87 1007.0
20260507011537 4 0 0.0 3.2 0.00 0.00 0.00 86 1007.0
20260507010028 5 0 0.0 1.6 0.00 0.00 0.00 85 1006.9
20260507004525 5 0 0.0 0.0 0.00 0.00 0.00 83 1006.8
20260507003025 5 0 0.0 3.2 0.00 0.00 0.00 83 1006.6
20260507000025 6 0 0.0 1.6 0.00 0.00 0.00 81 1006.3
20260506234536 6 0 0.0 3.2 0.00 0.00 0.00 81 1006.2
20260506233027 7 0 0.0 0.0 0.00 0.00 0.00 80 1006.1
20260506231534 7 0 0.0 0.0 0.00 0.00 0.00 79 1006.0
20260506230031 7 0 0.0 1.6 0.00 0.00 0.00 78 1005.9
20260506224530 7 0 0.0 3.2 0.00 0.00 0.00 79 1005.9
20260506223029 7 0 0.0 0.0 0.00 0.00 0.00 77 1006.0
20260506221527 8 0 0.0 1.6 0.00 0.00 0.00 75 1006.1
20260506220028 8 0 0.0 3.2 0.00 0.00 0.00 74 1006.0
20260506214528 8 0 0.0 3.2 0.00 0.00 0.00 73 1005.9
20260506213029 8 0 0.0 3.2 0.00 0.00 0.00 73 1005.8
20260506211529 10 275 0.0 4.8 0.00 0.00 0.00 71 1005.6
20260506210030 8 0 0.0 4.8 0.00 0.00 0.00 72 1005.7
20260506204533 9 90 0.0 6.4 0.00 0.00 0.00 71 1005.8
20260506203034 8 0 0.0 3.2 0.00 0.00 0.00 74 1005.8
20260506201526 8 5 0.0 4.8 0.00 0.00 0.00 73 1006.0
20260506200031 8 30 1.6 4.8 0.00 0.00 0.00 74 1006.1
20260506194527 8 0 0.0 4.8 0.00 0.05 0.00 74 1006.1
20260506193028 8 0 0.0 4.8 0.00 0.05 0.00 77 1006.2
20260506191528 8 0 0.0 6.4 0.00 0.05 0.00 75 1006.1
20260506190035 7 0 0.0 4.8 0.00 0.05 0.00 77 1006.2
20260506184529 7 323 1.6 6.4 0.00 0.23 0.00 78 1006.5
20260506183027 7 0 0.0 4.8 0.00 0.23 0.00 79 1006.3
20260506181533 7 65 0.0 4.8 0.00 0.23 0.00 78 1006.4
20260506180030 7 0 1.6 8.0 0.00 0.23 0.00 80 1006.2
20260506174530 7 344 0.0 6.4 0.00 0.23 0.00 78 1006.3
20260506173032 7 352 1.6 6.4 0.00 0.23 0.00 78 1006.2
20260506171528 8 298 0.0 6.4 0.00 0.23 0.00 76 1006.4
20260506170026 8 0 0.0 4.8 0.00 0.23 0.00 72 1006.4
20260506164528 8 19 0.0 4.8 0.00 0.25 0.00 74 1006.6
20260506163045 7 321 0.0 6.4 0.00 0.25 0.00 76 1006.7
20260506161530 7 5 0.0 4.8 0.00 0.25 0.00 77 1006.9
20260506160029 7 352 0.0 3.2 0.00 0.25 0.00 79 1007.2
20260506154535 6 326 0.0 4.8 0.00 0.28 0.00 81 1007.3
20260506153031 6 0 0.0 4.8 0.00 0.28 0.00 82 1007.4
20260506151537 6 340 0.0 3.2 0.00 0.28 0.00 83 1007.6
20260506150029 6 0 0.0 3.2 0.00 0.28 0.00 83 1007.5
20260506144529 6 0 0.0 1.6 0.00 1.32 0.00 82 1007.4
20260506143028 6 0 0.0 4.8 0.00 1.32 0.00 79 1007.3
20260506141532 6 0 0.0 4.8 0.00 1.32 0.00 76 1007.1
20260506140033 6 0 0.0 1.6 0.00 1.32 0.00 78 1007.2
20260506134528 6 270 0.0 1.6 0.00 1.47 0.00 82 1007.3
20260506133029 6 0 0.0 3.2 0.00 1.47 0.00 82 1007.2
20260506131534 6 0 0.0 3.2 0.00 1.47 0.00 82 1007.2
20260506130030 6 0 0.0 4.8 0.00 1.47 0.00 83 1007.2
20260506124530 6 0 0.0 1.6 0.00 1.47 0.00 80 1007.1
20260506123030 6 0 0.0 1.6 0.00 1.47 0.00 79 1007.1
20260506121526 5 0 0.0 0.0 0.00 1.47 0.00 78 1007.3
20260506120026 5 0 0.0 0.0 0.00 1.47 0.00 79 1007.3
20260506114526 5 0 0.0 0.0 0.00 1.47 0.00 77 1007.2
20260506113028 5 0 0.0 0.0 0.00 1.47 0.00 78 1007.3
20260506111530 5 0 0.0 0.0 0.00 1.47 0.00 76 1007.3
20260506110028 5 0 0.0 0.0 0.00 1.47 0.00 75 1007.4
20260506104525 5 0 0.0 0.0 0.00 1.47 0.00 76 1007.6
20260506103029 5 0 0.0 0.0 0.00 1.47 0.00 74 1007.5
20260506101530 5 0 0.0 0.0 0.00 1.47 0.00 70 1007.1
20260506100031 5 0 0.0 0.0 0.00 1.47 0.00 70 1007.2
20260506094530 5 0 0.0 0.0 0.00 1.47 0.00 71 1007.0
20260506093026 5 0 0.0 0.0 0.00 1.47 0.00 71 1007.0
20260506091527 5 0 0.0 0.0 0.00 1.47 0.00 74 1007.1
20260506090026 5 0 0.0 0.0 0.00 1.47 0.00 73 1007.1
20260506084536 5 0 0.0 0.0 0.00 1.47 0.00 72 1007.0
20260506083031 5 0 0.0 0.0 0.00 1.47 0.00 71 1007.0
20260506081528 5 0 0.0 4.8 0.00 1.47 0.00 73 1007.2
20260506073025 6 0 0.0 0.0 0.00 1.47 0.00 70 1007.0
20260506071528 6 0 0.0 0.0 0.00 1.47 0.00 69 1006.8
20260506061528 6 0 0.0 1.6 0.00 1.47 0.00 71 1006.7